Date String (YYYY-MM-DD hh:mm:ss) UTC,Instrument flags,Ambient pressure (hPa),Sample flow (lpm),Bypass flow (lpm),Sample temperature (°C),Ambient temperature (°C),ASC tube jacket temperature (°C),LED temperature (°C),Box temperature (°C),Sample RH (%),Span deviation,Mass concentration (μg/m³),Mass concentration (μg/m³),Mass concentration (μg/m³)
DateTimeUTC,F1_M11,P_M11,Q1_M11,Q2_M11,T1_M11,T2_M11,T3_M11,T4_M11,T5_M11,U1_M11,ZSPAN_M11,X0_M11,X2_M11,X1_M11
2022-07-08 20:00:00,,0832.0,5.00,0.00,29.4,28.2,00.0,38.0,31.3,33.1,0000.0,0013.68,0005.30,0004.19
2022-07-08 20:01:00,,0832.0,5.00,0.00,29.4,27.8,00.0,38.0,31.3,33.1,0000.0,0014.41,0005.36,0004.21
2022-07-08 20:02:00,,0832.1,5.00,0.00,29.4,27.3,00.0,38.0,31.2,33.4,0000.0,0014.92,0005.36,0004.20
2022-07-08 20:03:00,,0832.0,5.00,0.00,29.3,27.0,00.0,37.9,31.1,33.4,0000.0,0015.09,0005.39,0004.20
2022-07-08 20:04:00,,0832.0,4.99,0.00,29.3,27.1,00.0,38.0,31.0,34.9,0000.0,0015.37,0005.44,0004.23
2022-07-08 20:05:00,,0832.0,4.99,0.00,29.3,27.2,00.0,38.0,31.0,35.1,0000.0,0015.71,0005.44,0004.25
2022-07-08 20:06:00,,0832.0,5.01,0.00,29.6,27.4,00.0,38.0,31.2,34.7,0000.0,0015.92,0005.39,0004.26
2022-07-08 20:07:00,,0832.0,4.99,0.00,29.8,27.7,00.0,38.0,31.3,34.3,0000.0,0015.75,0005.36,0004.28
2022-07-08 20:08:00,,0832.0,5.00,0.00,29.9,27.9,00.0,38.0,31.4,33.7,0000.0,0016.58,0005.32,0004.30
2022-07-08 20:09:00,,0832.0,5.00,0.00,30.0,28.0,00.0,38.1,31.4,33.3,0000.0,0016.89,0005.31,0004.33
2022-07-08 20:10:00,,0832.0,5.00,0.00,30.1,28.2,00.0,38.1,31.5,33.2,0000.0,0017.34,0005.32,0004.35
2022-07-08 20:11:00,,0831.9,5.01,0.00,30.1,27.9,00.0,38.2,31.5,33.9,0000.0,0018.43,0005.25,0004.38
2022-07-08 20:12:00,,0831.9,5.00,0.00,30.1,27.3,00.0,38.2,31.3,34.0,0000.0,0018.70,0005.22,0004.38
2022-07-08 20:13:00,,0831.9,5.01,0.00,30.0,27.1,00.0,38.2,31.3,34.0,0000.0,0018.42,0005.21,0004.40
2022-07-08 20:14:00,,0831.8,5.00,0.00,30.0,27.1,00.0,38.2,31.2,34.2,0000.0,0018.53,0005.24,0004.43
2022-07-08 20:15:00,,0831.8,5.00,0.00,29.9,27.3,00.0,38.3,31.1,32.6,0000.0,0018.45,0005.23,0004.41
2022-07-08 20:16:00,,0831.8,5.00,0.00,29.9,27.5,00.0,38.3,31.2,31.8,0000.0,0018.37,0005.16,0004.38
2022-07-08 20:17:00,,0831.8,5.00,0.00,29.9,27.7,00.0,38.3,31.3,32.5,0000.0,0017.83,0005.15,0004.36
2022-07-08 20:18:00,,0831.8,5.00,0.00,29.9,27.9,00.0,38.3,31.4,33.9,0000.0,0016.92,0005.17,0004.36
2022-07-08 20:19:00,,0831.9,5.00,0.00,29.9,28.1,00.0,38.4,31.4,33.5,0000.0,0016.30,0005.21,0004.35
2022-07-08 20:20:00,,0832.0,5.00,0.00,30.0,28.2,00.0,38.4,31.5,33.2,0000.0,0015.38,0005.21,0004.35
2022-07-08 20:21:00,,0831.9,5.00,0.00,30.0,28.1,00.0,38.4,31.5,32.4,0000.0,0015.15,0005.22,0004.33
2022-07-08 20:22:00,,0831.9,5.00,0.00,29.9,27.5,00.0,38.3,31.4,33.1,0000.0,0013.87,0005.25,0004.33
2022-07-08 20:23:00,,0831.9,5.00,0.00,29.9,27.2,00.0,38.3,31.3,32.5,0000.0,0013.79,0005.21,0004.31
2022-07-08 20:24:00,,0831.9,5.00,0.00,29.8,27.2,00.0,38.3,31.2,33.1,0000.0,0013.94,0005.22,0004.30
2022-07-08 20:25:00,,0831.9,5.00,0.00,29.7,27.3,00.0,38.3,31.2,33.5,0000.0,0014.79,0005.22,0004.29
2022-07-08 20:26:00,,0831.8,4.99,0.00,29.7,27.5,00.0,38.3,31.2,33.5,0000.0,0016.04,0005.22,0004.30
2022-07-08 20:27:00,,0831.8,5.00,0.00,29.7,27.7,00.0,38.3,31.3,33.1,0000.0,0015.83,0005.26,0004.31
2022-07-08 20:28:00,,0831.8,5.01,0.00,29.8,27.9,00.0,38.3,31.4,32.8,0000.0,0015.76,0005.32,0004.32
2022-07-08 20:29:00,,0831.8,4.99,0.00,29.8,28.1,00.0,38.3,31.4,32.7,0000.0,0015.80,0005.35,0004.32
2022-07-08 20:30:00,,0831.7,5.00,0.00,29.8,28.2,00.0,38.3,31.5,32.0,0000.0,0015.28,0005.36,0004.30
2022-07-08 20:31:00,,0831.7,5.00,0.00,29.8,27.9,00.0,38.3,31.5,32.0,0000.0,0015.74,0005.32,0004.28
2022-07-08 20:32:00,,0831.7,5.00,0.00,29.7,27.4,00.0,38.3,31.4,32.3,0000.0,0016.48,0005.34,0004.27
2022-07-08 20:33:00,,0831.7,5.00,0.00,29.7,27.2,00.0,38.3,31.3,32.5,0000.0,0016.44,0005.35,0004.25
2022-07-08 20:34:00,,0831.7,5.00,0.00,29.6,27.2,00.0,38.3,31.2,32.1,0000.0,0015.50,0005.37,0004.25
2022-07-08 20:35:00,,0831.7,5.00,0.00,29.6,27.4,00.0,38.3,31.2,32.2,0000.0,0014.86,0005.35,0004.26
2022-07-08 20:36:00,,0831.7,5.00,0.00,29.6,27.6,00.0,38.3,31.2,32.5,0000.0,0013.89,0005.34,0004.24
2022-07-08 20:37:00,,0831.7,5.00,0.00,29.6,27.8,00.0,38.3,31.3,33.1,0000.0,0012.47,0005.32,0004.23
2022-07-08 20:38:00,,0831.7,5.01,0.00,29.6,28.0,00.0,38.3,31.4,32.7,0000.0,0012.14,0005.35,0004.23
2022-07-08 20:39:00,,0831.8,4.98,0.00,29.7,28.2,00.0,38.3,31.4,32.5,0000.0,0012.13,0005.37,0004.25
2022-07-08 20:40:00,,0831.7,5.00,0.00,29.7,28.2,00.0,38.3,31.5,32.0,0000.0,0012.16,0005.33,0004.26
2022-07-08 20:41:00,,0831.7,5.01,0.00,29.7,27.6,00.0,38.2,31.4,31.8,0000.0,0012.93,0005.32,0004.27
2022-07-08 20:42:00,,0831.7,4.98,0.00,29.6,27.2,00.0,38.2,31.3,31.9,0000.0,0013.38,0005.36,0004.29
2022-07-08 20:43:00,,0831.7,5.00,0.00,29.6,27.1,00.0,38.2,31.2,32.1,0000.0,0012.59,0005.41,0004.33
2022-07-08 20:44:00,,0831.7,5.00,0.00,29.5,27.2,00.0,38.2,31.1,32.3,0000.0,0012.55,0005.45,0004.38
2022-07-08 20:45:00,,0831.6,5.01,0.00,29.5,27.4,00.0,38.2,31.1,32.3,0000.0,0012.70,0005.52,0004.41
2022-07-08 20:46:00,,0831.6,5.00,0.00,29.5,27.6,00.0,38.2,31.2,32.3,0000.0,0012.97,0005.54,0004.42
2022-07-08 20:47:00,,0831.6,5.01,0.00,29.5,27.8,00.0,38.2,31.3,32.3,0000.0,0013.34,0005.59,0004.44
2022-07-08 20:48:00,,0831.5,4.99,0.00,29.5,28.1,00.0,38.2,31.3,32.1,0000.0,0013.60,0005.65,0004.46
2022-07-08 20:49:00,,0831.5,5.01,0.00,29.6,28.2,00.0,38.2,31.4,32.2,0000.0,0014.51,0005.68,0004.49
2022-07-08 20:50:00,,0831.6,5.00,0.00,29.6,27.9,00.0,38.2,31.4,32.4,0000.0,0015.28,0005.68,0004.51
2022-07-08 20:51:00,,0831.6,5.00,0.00,29.5,27.4,00.0,38.1,31.3,33.1,0000.0,0015.46,0005.69,0004.53
2022-07-08 20:52:00,,0831.5,4.99,0.00,29.5,27.1,00.0,38.1,31.2,33.2,0000.0,0015.32,0005.74,0004.56
2022-07-08 20:53:00,,0831.5,5.01,0.00,29.5,27.2,00.0,38.1,31.1,31.9,0000.0,0014.82,0005.75,0004.57
2022-07-08 20:54:00,,0831.5,5.00,0.00,29.4,27.4,00.0,38.1,31.1,31.2,0000.0,0014.80,0005.75,0004.54
2022-07-08 20:55:00,,0831.4,5.01,0.00,29.4,27.6,00.0,38.1,31.1,31.4,0000.0,0015.29,0005.72,0004.51
2022-07-08 20:56:00,,0831.4,5.00,0.00,29.4,27.8,00.0,38.1,31.2,32.3,0000.0,0015.34,0005.67,0004.49
2022-07-08 20:57:00,,0831.5,4.99,0.00,29.5,28.0,00.0,38.1,31.3,31.4,0000.0,0015.02,0005.64,0004.49
2022-07-08 20:58:00,,0831.4,5.00,0.00,29.5,28.2,00.0,38.2,31.4,30.6,0000.0,0014.82,0005.54,0004.48
2022-07-08 20:59:00,,0831.4,4.99,0.00,29.5,27.9,00.0,38.1,31.4,29.9,0000.0,0015.05,0005.47,0004.47
